IRIDIUM 161 (43478 NORAD) Tracking and Keplerian Element Data

This shows tracking and keplerian element data for the satellite.

Feedback or suggestion? Click here.




ElementValue
Catalog43478
NameIRIDIUM 161
Epoch Orbit414
Epoch Day171.4099195
Epoch Year2018
RAAN228.232
Inclination86.4514
Eccentricity0.0002175
Argument of Perigee99.2401
Mean Anonmoly260.9046
Mean Motion14.43274191
Decay Rate4E-07
L11 43478U 18047C 18171.40991950 .00000040 00000-0 57897-5 0 9996
L22 43478 86.4514 228.2320 0002175 99.2401 260.9046 14.43274191 4147

Live tracking and technical data element details for IRIDIUM 161 (NORAD 43478). IRIDIUM 161 can be tracked NOW for your location showing map with azimuth and elevation plus other details from your city location.

Track the satellite on the map from your city or location and see movement details for azimuth, elevation, latitude, longitude, range, height, and movement on the map or in text.







IsCatalogInMostPopularTable: catalog: 43478, numindb: 66
Update: records affected: 1



GetName: 43478 IRIDIUM 161

Hit Count: updated at: Thu, 15 Nov 2018 03:55:25 GMT